Time,TemperatureF,DewpointF,PressureIn,WindDirection,WindDirectionDegrees,WindSpeedMPH,WindSpeedGustMPH,Humidity,HourlyPrecipIn,Conditions,Clouds,dailyrainin,SoftwareType,DateUTC
2013-09-29 00:44:00,53.0,-99.9,-100.00,NE,46,-999.0,5.0,-999,0.00,,,-99.99,,2013-09-29 04:44:00,
2013-09-29 00:52:00,55.0,-99.9,-100.00,NE,46,-999.0,-999.0,-999,0.00,,,-99.99,,2013-09-29 04:52:00,
2013-09-29 01:43:00,55.0,-99.9,-100.00,NE,46,-999.0,-999.0,-999,0.00,,,-99.99,,2013-09-29 05:43:00,
2013-09-29 01:52:00,52.0,-99.9,-100.00,NNE,29,-999.0,3.0,-999,0.00,,,-99.99,,2013-09-29 05:52:00,
2013-09-29 02:42:00,52.0,-99.9,-100.00,NNE,29,-999.0,3.0,-999,0.00,,,-99.99,,2013-09-29 06:42:00,
2013-09-29 02:52:00,51.0,-99.9,-100.00,ENE,57,-999.0,6.0,-999,0.00,,,-99.99,,2013-09-29 06:52:00,
2013-09-29 03:43:00,51.0,-99.9,-100.00,ENE,57,-999.0,6.0,-999,0.00,,,-99.99,,2013-09-29 07:43:00,
2013-09-29 03:52:00,51.0,-99.9,-100.00,NNE,27,5.0,6.0,-999,0.00,,,-99.99,,2013-09-29 07:52:00,
2013-09-29 04:42:00,51.0,-99.9,-100.00,NNE,27,5.0,6.0,-999,0.00,,,-99.99,,2013-09-29 08:42:00,
2013-09-29 04:52:00,50.0,-99.9,-100.00,NNE,24,3.0,5.0,-999,0.00,,,-99.99,,2013-09-29 08:52:00,
2013-09-29 05:43:00,50.0,-99.9,-100.00,NNE,24,3.0,5.0,-999,0.00,,,-99.99,,2013-09-29 09:43:00,
2013-09-29 06:52:00,50.0,-99.9,-100.00,NE,37,-999.0,-999.0,-999,0.00,,,-99.99,,2013-09-29 10:52:00,
2013-09-29 07:43:00,50.0,-99.9,-100.00,NE,37,-999.0,-999.0,-999,0.00,,,-99.99,,2013-09-29 11:43:00,
2013-09-29 07:52:00,52.0,-99.9,-100.00,NNE,16,-999.0,7.0,-999,0.00,,,-99.99,,2013-09-29 11:52:00,
2013-09-29 08:42:00,52.0,-99.9,-100.00,NNE,16,-999.0,7.0,-999,0.00,,,-99.99,,2013-09-29 12:42:00,
2013-09-29 08:52:00,58.0,-99.9,-100.00,ENE,72,5.0,8.0,-999,0.00,,,-99.99,,2013-09-29 12:52:00,
2013-09-29 09:42:00,58.0,-99.9,-100.00,ENE,72,5.0,8.0,-999,0.00,,,-99.99,,2013-09-29 13:42:00,
2013-09-29 09:52:00,64.0,-99.9,-100.00,ESE,106,3.0,11.0,-999,0.00,,,-99.99,,2013-09-29 13:52:00,
2013-09-29 10:43:00,64.0,-99.9,-100.00,ESE,106,3.0,11.0,-999,0.00,,,-99.99,,2013-09-29 14:43:00,
2013-09-29 10:52:00,65.0,-99.9,-100.00,ESE,109,6.0,15.0,-999,0.00,,,-99.99,,2013-09-29 14:52:00,
2013-09-29 11:45:00,65.0,-99.9,-100.00,ESE,109,6.0,15.0,-999,0.00,,,-99.99,,2013-09-29 15:45:00,
2013-09-29 11:52:00,68.0,-99.9,-100.00,North,9,6.0,12.0,-999,0.00,,,-99.99,,2013-09-29 15:52:00,
2013-09-29 12:44:00,68.0,-99.9,-100.00,North,9,6.0,12.0,-999,0.00,,,-99.99,,2013-09-29 16:44:00,
2013-09-29 12:52:00,68.0,-99.9,-100.00,SE,132,4.0,12.0,-999,0.00,,,-99.99,,2013-09-29 16:52:00,
2013-09-29 13:43:00,68.0,-99.9,-100.00,SE,132,4.0,12.0,-999,0.00,,,-99.99,,2013-09-29 17:43:00,
2013-09-29 13:52:00,70.0,-99.9,-100.00,SE,129,11.0,16.0,-999,0.00,,,-99.99,,2013-09-29 17:52:00,
2013-09-29 14:42:00,70.0,-99.9,-100.00,SE,129,11.0,16.0,-999,0.00,,,-99.99,,2013-09-29 18:42:00,
2013-09-29 14:52:00,70.0,-99.9,-100.00,ENE,64,10.0,11.0,-999,0.00,,,-99.99,,2013-09-29 18:52:00,
2013-09-29 15:42:00,70.0,-99.9,-100.00,ENE,64,10.0,11.0,-999,0.00,,,-99.99,,2013-09-29 19:42:00,
2013-09-29 15:52:00,69.0,-99.9,-100.00,ESE,120,6.0,13.0,-999,0.00,,,-99.99,,2013-09-29 19:52:00,
2013-09-29 16:43:00,69.0,-99.9,-100.00,ESE,120,6.0,13.0,-999,0.00,,,-99.99,,2013-09-29 20:43:00,
2013-09-29 16:52:00,68.0,-99.9,-100.00,East,92,3.0,12.0,-999,0.00,,,-99.99,,2013-09-29 20:52:00,
2013-09-29 17:44:00,68.0,-99.9,-100.00,East,92,3.0,12.0,-999,0.00,,,-99.99,,2013-09-29 21:44:00,
2013-09-29 17:52:00,66.0,-99.9,-100.00,East,94,5.0,8.0,-999,0.00,,,-99.99,,2013-09-29 21:52:00,
2013-09-29 18:43:00,66.0,-99.9,-100.00,East,94,5.0,8.0,-999,0.00,,,-99.99,,2013-09-29 22:43:00,
2013-09-29 18:52:00,60.0,-99.9,-100.00,ENE,57,-999.0,6.0,-999,0.00,,,-99.99,,2013-09-29 22:52:00,
2013-09-29 19:43:00,60.0,-99.9,-100.00,ENE,57,-999.0,6.0,-999,0.00,,,-99.99,,2013-09-29 23:43:00,
2013-09-29 19:52:00,56.0,-99.9,-100.00,East,94,-999.0,-999.0,-999,0.00,,,-99.99,,2013-09-29 23:52:00,
2013-09-29 20:42:00,56.0,-99.9,-100.00,East,94,-999.0,-999.0,-999,0.00,,,-99.99,,2013-09-30 00:42:00,
2013-09-29 20:52:00,54.0,-99.9,-100.00,ENE,76,-999.0,-999.0,-999,0.00,,,-99.99,,2013-09-30 00:52:00,
2013-09-29 21:42:00,54.0,-99.9,-100.00,ENE,76,-999.0,-999.0,-999,0.00,,,-99.99,,2013-09-30 01:42:00,
2013-09-29 21:52:00,53.0,-99.9,-100.00,ENE,63,-999.0,-999.0,-999,0.00,,,-99.99,,2013-09-30 01:52:00,
2013-09-29 22:42:00,53.0,-99.9,-100.00,ENE,63,-999.0,-999.0,-999,0.00,,,-99.99,,2013-09-30 02:42:00,
2013-09-29 22:52:00,50.0,-99.9,-100.00,ENE,63,-999.0,-999.0,-999,0.00,,,-99.99,,2013-09-30 02:52:00,
2013-09-29 23:45:00,50.0,-99.9,-100.00,ENE,63,-999.0,-999.0,-999,0.00,,,-99.99,,2013-09-30 03:45:00,
2013-09-29 23:52:00,51.0,-99.9,-100.00,ENE,63,-999.0,-999.0,-999,0.00,,,-99.99,,2013-09-30 03:52:00,